Location: Unspecified
(40.7945°N, 0.0000°E)
Time: 22:54:46
(UTC+00:00)

AIST 2D - Pass Details

Date: 22 July 2019
Orbit: 457 x 471 km, 97.2° (Epoch: 24 August)

Event Time Altitude Azimuth Distance (km) Brightness Sun altitude
Rises 23:13:03 0° 4° (N) 2,515 ? -27.8°
Reaches altitude 10° 23:15:09 10° 358° (N) 1,636 ? -27.9°
Enters shadow 23:17:04 27° 340° (NNW) 929 ? -28.0°
